Regional Weather Roundup
Issued by NWS

Home | Current Version | Previous Version | Graphics & Text | Print | Product List | Glossary On
Versions: 1 2 3 4 5 6 7 8 9 10 11 12 13 14 15 16 17 18 19 20 21 22 23 24 25 26 27 28 29 30 31 32 33 34 35 36 37 38 39 40 41 42 43 44 45 46 47 48 49 50
694
ASUS43 KLOT 281704
RWRIL

ILLINOIS REGIONAL WEATHER ROUNDUP
NATIONAL WEATHER SERVICE CHICAGO/ROMEOVILLE IL
1200 PM CDT WED SEP 28 2016

NOTE: "FAIR" INDICATES FEW OR NO CLOUDS BELOW 12,000 FEET WITH NO
SIGNIFICANT WEATHER AND/OR OBSTRUCTIONS TO VISIBILITY.

* THESE STATIONS ARE NOT UNDER NWS QUALITY CONTROL. THEY ALSO MAY NOT
  REPORT WEATHER SUCH AS PRECIPITATION OR FOG.

ILZ001-002-007-009-015-016-024-281800-
NORTHWEST ILLINOIS

CITY           SKY/WX    TMP DP  RH WIND       PRES   REMARKS
MOLINE         CLOUDY    58  48  69 NW17      29.99R
STERLING*      LGT RAIN  57  50  77 N12       29.97S
$$

ILZ003-004-008-010-011-017-018-281800-
NORTH CENTRAL ILLINOIS

CITY           SKY/WX    TMP DP  RH WIND       PRES   REMARKS
ROCKFORD       CLOUDY    58  48  69 N13G23    29.98R
FREEPORT*      CLOUDY    55  51  86 N10G17    29.99R
ROCHELLE*      CLOUDY    56  49  76 N13G21    29.95R
$$

ILZ005-006-012>014-019>023-281800-
NORTHEAST ILLINOIS

CITY           SKY/WX    TMP DP  RH WIND       PRES   REMARKS
CHICAGO-OHARE  LGT RAIN  56  49  77 NE9       29.91R
CHICAGO-MIDWAY CLOUDY    56  50  80 N14       29.91R
AURORA         PTSUNNY   58  50  75 N14       29.92R
LANSING*       CLOUDY    54  52  94 NW12G24   29.88S
WAUKEGAN       LGT RAIN  54  50  86 VRB5      29.93R
DUPAGE AIRPORT CLOUDY    60  48  64 N15       29.91R
KANKAKEE*      CLOUDY    61  46  57 N13       29.89S
WHEELING       LGT RAIN  54  49  83 NE10      29.94R
NORTHERLY ISL    N/A     55  49  80 NW15        N/A
$$

LMZ740>746-281800-
SOUTHERN LAKE MICHIGAN

STATION/POSITION SKY/WX   TEMP    WIND        PRES    VSBY  WAVE
                          AIR SEA DIR/SP/G                  HT/PER
                          (F)     (DEG/KT/KT) (MB)    (MI)  (FT/S)
SOUTHERN BUOY              59 69   40/ 12/ 14 1012.0          1/ 3
WILMETTE HARBOR            54 59   20/ 17/ 23   N/A           5/ 4
HARRISON CRIB              55     330/ 21/ 23   N/A
BURNHAM HARBOR             55     290/ 10/ 16   N/A
CALUMET HARBOR             54     320/ 10/ 14 1011.7R
BURNS HARBOR               60      30/ 22/ 25 1011.2S
MICHIGAN CITY              57      20/ 18/ 20   N/A
MICHIGAN CITY 6N           59 66   50/ 16/ 19   N/A           5/ 4
ST. JOSEPH                 57 66   40/ 14/ 17 1011.8R         3/ 4
$$

ILZ025>027-034>036-040-047-049-050-058-095>099-281800-
WEST-CENTRAL ILLINOIS

CITY           SKY/WX    TMP DP  RH WIND       PRES   REMARKS
QUINCY         MOSUNNY   59  44  57 N15G22    30.01R
GALESBURG*     CLOUDY    56  47  71 NW13G22   29.99R
MACOMB*        CLOUDY    57  46  65 N13       30.03R
$$

ILZ028>032-037-038-041>044-048-051>054-059>061-281800-
CENTRAL ILLINOIS

CITY           SKY/WX    TMP DP  RH WIND       PRES   REMARKS
BLOOMINGTON    CLOUDY    55  46  71 N17G25    29.94R
DECATUR        CLOUDY    59  45  59 N16G26    29.93R
PEORIA         CLOUDY    56  46  69 N12G20    29.97R
LINCOLN*       CLOUDY    57  46  67 N12G18    29.95R
SPRINGFIELD    CLOUDY    61  45  55 N16G23    29.95R
TAYLORVILLE    NOT AVBL
$$

ILZ033-039-045-046-055>057-062-063-281800-
EAST-CENTRAL ILLINOIS

CITY           SKY/WX    TMP DP  RH WIND       PRES   REMARKS
CHAMPAIGN      PTSUNNY   59  45  59 NW16G26   29.90R
MATTOON        LGT RAIN  61  45  55 N16G26    29.88R
$$

ILZ079-100>102-281800-
SOUTHWEST ILLINOIS

CITY           SKY/WX    TMP DP  RH WIND       PRES   REMARKS
BELLEVILLE     SUNNY     66  48  51 N8G23     29.92R
CAHOKIA*       PTSUNNY   65  46  50 N15G26    29.95R
SPARTA*        SUNNY     66  49  52 N12       29.92R
$$

ILZ064>066-069>071-074>076-080>082-084>086-088>090-092>094-281800-
SOUTH-CENTRAL ILLINOIS

CITY           SKY/WX    TMP DP  RH WIND       PRES   REMARKS
CARBONDALE     CLOUDY    68  51  54 N9        29.89R
MARION         PTSUNNY   68  52  56 NW12G20   29.89R
MT. VERNON     MOSUNNY   66  46  48 N7        29.89R
CENTRALIA*     SUNNY     66  48  52 N17G25    29.90R
SALEM*         SUNNY     67  46  46 N12G20    29.89R
METROPOLIS*    CLOUDY    73  56  55 W7        29.88R
$$

ILZ067-068-072-073-078-083-087-091-281800-
SOUTHEAST ILLINOIS

CITY           SKY/WX    TMP DP  RH WIND       PRES   REMARKS
LAWRENCEVILLE  MOSUNNY   66  54  65 NW13      29.83R
FLORA*         MOSUNNY   67  50  54 N15       29.88R
HARRISBURG*    CLOUDY    65  56  70 NW8       29.87R
ROBINSON*      PTSUNNY   66  53  62 NW15      29.84R
$$

ABBREVIATIONS USED IN REMARKS
   TC - TEMPERATURE IN CELSIUS
  WCI - WIND CHILL INDEX
   HX - HEAT INDEX
  VSB - VISIBILITY
$$





USA.gov is the U.S. government's official web portal to all federal, state and local government web resources and services.